| time (UTC) | temp F | wind direction | speed MPH | gust MPH | rain 1hr in | rain 24hr in | rain mn in | humidity % | barometer mb |
| 20260903142941 | 71 | 127 | 0.0 | 6.0 | 0.00 | 0.00 | 0.00 | 68 | 1016.8 |
| 20260903141943 | 71 | 196 | 2.0 | 4.0 | 0.00 | 0.00 | 0.00 | 68 | 1016.8 |
| 20260903135943 | 72 | 157 | 0.0 | 4.0 | 0.00 | 0.00 | 0.00 | 71 | 1016.8 |
| 20260903134941 | 72 | 185 | 2.0 | 4.0 | 0.00 | 0.00 | 0.00 | 65 | 1017.0 |
| 20260903133940 | 74 | 168 | 1.0 | 3.0 | 0.00 | 0.00 | 0.00 | 67 | 1017.0 |
| 20260903132941 | 73 | 160 | 0.0 | 6.0 | 0.00 | 0.00 | 0.00 | 66 | 1017.3 |
| 20260903131954 | 73 | 167 | 1.0 | 3.0 | 0.00 | 0.00 | 0.00 | 65 | 1017.0 |
| 20260903130944 | 72 | 193 | 2.0 | 8.0 | 0.00 | 0.00 | 0.00 | 66 | 1017.5 |
| 20260903123934 | 73 | 107 | 0.0 | 4.0 | 0.00 | 0.00 | 0.00 | 66 | 1017.5 |
| 20260903122934 | 73 | 143 | 0.0 | 3.0 | 0.00 | 0.00 | 0.00 | 64 | 1017.4 |
| 20260903121935 | 73 | 205 | 1.0 | 3.0 | 0.00 | 0.00 | 0.00 | 64 | 1017.6 |
| 20260903120939 | 72 | 202 | 1.0 | 4.0 | 0.00 | 0.00 | 0.00 | 64 | 1017.8 |
| 20260903114933 | 73 | 0 | 3.0 | 6.0 | 0.00 | 0.00 | 0.00 | 63 | 1018.0 |
| 20260903113934 | 73 | 143 | 1.0 | 4.0 | 0.00 | 0.00 | 0.00 | 65 | 1017.9 |
| 20260903112934 | 73 | 125 | 0.0 | 3.0 | 0.00 | 0.00 | 0.00 | 67 | 1018.1 |
| 20260903111934 | 71 | 196 | 1.0 | 4.0 | 0.00 | 0.00 | 0.00 | 66 | 1018.1 |
| 20260903110937 | 73 | 94 | 1.0 | 3.0 | 0.00 | 0.00 | 0.00 | 66 | 1018.4 |
| 20260903105935 | 73 | 174 | 1.0 | 4.0 | 0.00 | 0.00 | 0.00 | 65 | 1018.3 |
| 20260903104934 | 72 | 223 | 2.0 | 7.0 | 0.00 | 0.00 | 0.00 | 63 | 1018.4 |
| 20260903103935 | 74 | 155 | 1.0 | 6.0 | 0.00 | 0.00 | 0.00 | 67 | 1018.6 |
| 20260903102934 | 72 | 65 | 1.0 | 6.0 | 0.00 | 0.00 | 0.00 | 63 | 1018.6 |
| 20260903101934 | 71 | 155 | 0.0 | 6.0 | 0.00 | 0.00 | 0.00 | 65 | 1018.6 |
| 20260903100935 | 72 | 195 | 3.0 | 6.0 | 0.00 | 0.00 | 0.00 | 64 | 1018.6 |
| 20260903094934 | 72 | 79 | 1.0 | 6.0 | 0.00 | 0.00 | 0.00 | 66 | 1018.8 |
| 20260903092935 | 72 | 90 | 1.0 | 6.0 | 0.00 | 0.00 | 0.00 | 64 | 1018.9 |
| 20260903091934 | 70 | 68 | 1.0 | 2.0 | 0.00 | 0.00 | 0.00 | 68 | 1019.3 |
| 20260903090935 | 71 | 150 | 0.0 | 4.0 | 0.00 | 0.00 | 0.00 | 69 | 1019.3 |
| 20260903085934 | 70 | 144 | 1.0 | 6.0 | 0.00 | 0.00 | 0.00 | 69 | 1019.1 |
| 20260903084937 | 70 | 247 | 2.0 | 6.0 | 0.00 | 0.00 | 0.00 | 69 | 1019.3 |
| 20260903082939 | 70 | 76 | 1.0 | 6.0 | 0.00 | 0.00 | 0.00 | 74 | 1019.6 |
| 20260903081934 | 69 | 168 | 0.0 | 4.0 | 0.00 | 0.00 | 0.00 | 72 | 1019.5 |
| 20260903080934 | 69 | 204 | 1.0 | 4.0 | 0.00 | 0.00 | 0.00 | 76 | 1019.5 |
| 20260903074933 | 67 | 162 | 1.0 | 4.0 | 0.00 | 0.00 | 0.00 | 78 | 1019.4 |
| 20260903073934 | 68 | 171 | 1.0 | 4.0 | 0.00 | 0.00 | 0.00 | 78 | 1019.4 |
| 20260903072936 | 67 | 123 | 0.0 | 3.0 | 0.00 | 0.00 | 0.00 | 79 | 1019.4 |
| 20260903071933 | 66 | 134 | 1.0 | 3.0 | 0.00 | 0.00 | 0.00 | 81 | 1019.6 |
| 20260903070935 | 65 | 163 | 0.0 | 2.0 | 0.00 | 0.00 | 0.00 | 83 | 1019.4 |
| 20260903065934 | 62 | 180 | 1.0 | 3.0 | 0.00 | 0.00 | 0.00 | 87 | 1019.3 |
| 20260903063935 | 59 | 162 | 1.0 | 1.0 | 0.00 | 0.00 | 0.00 | 99 | 1019.2 |
| 20260903062935 | 58 | 137 | 0.0 | 2.0 | 0.00 | 0.00 | 0.00 | 99 | 1019.2 |
| 20260903061934 | 58 | 154 | 1.0 | 2.0 | 0.00 | 0.00 | 0.00 | 99 | 1019.4 |
| 20260903054935 | 55 | 141 | 0.0 | 0.0 | 0.00 | 0.00 | 0.00 | 99 | 1019.3 |
| 20260903053934 | 54 | 141 | 0.0 | 0.0 | 0.00 | 0.00 | 0.00 | 99 | 1019.2 |
| 20260903052934 | 53 | 136 | 0.0 | 0.0 | 0.00 | 0.00 | 0.00 | 99 | 1019.6 |
| 20260903051933 | 52 | 141 | 0.0 | 0.0 | 0.00 | 0.00 | 0.00 | 99 | 1019.3 |
| 20260903050939 | 51 | 141 | 0.0 | 0.0 | 0.00 | 0.00 | 0.00 | 99 | 1019.2 |
| 20260903044934 | 49 | 141 | 0.0 | 0.0 | 0.00 | 0.00 | 0.00 | 99 | 1019.4 |
| 20260903042934 | 47 | 141 | 0.0 | 0.0 | 0.00 | 0.00 | 0.00 | 99 | 1019.5 |
| 20260903041935 | 47 | 141 | 0.0 | 0.0 | 0.00 | 0.00 | 0.00 | 99 | 1019.2 |
| 20260903035934 | 47 | 141 | 0.0 | 0.0 | 0.00 | 0.00 | 0.00 | 99 | 1019.4 |
| 20260903034934 | 47 | 141 | 0.0 | 0.0 | 0.00 | 0.00 | 0.00 | 99 | 1019.5 |
| 20260903033935 | 47 | 141 | 0.0 | 0.0 | 0.00 | 0.00 | 0.00 | 99 | 1019.5 |
| 20260903032934 | 47 | 141 | 0.0 | 0.0 | 0.00 | 0.00 | 0.00 | 99 | 1019.2 |
| 20260903031934 | 48 | 140 | 0.0 | 0.0 | 0.00 | 0.00 | 0.00 | 99 | 1019.3 |
| 20260903030934 | 48 | 141 | 0.0 | 0.0 | 0.00 | 0.00 | 0.00 | 99 | 1019.5 |
| 20260903025935 | 48 | 141 | 0.0 | 0.0 | 0.00 | 0.00 | 0.00 | 99 | 1019.4 |
| 20260903024934 | 48 | 141 | 0.0 | 0.0 | 0.00 | 0.00 | 0.00 | 99 | 1019.5 |
| 20260903023935 | 48 | 141 | 0.0 | 0.0 | 0.00 | 0.00 | 0.00 | 99 | 1019.4 |
| 20260903022937 | 48 | 141 | 0.0 | 0.0 | 0.00 | 0.00 | 0.00 | 99 | 1019.5 |
| 20260903021934 | 48 | 141 | 0.0 | 0.0 | 0.00 | 0.00 | 0.00 | 99 | 1019.5 |
| 20260903014937 | 49 | 140 | 0.0 | 0.0 | 0.00 | 0.00 | 0.00 | 99 | 1019.3 |
| 20260903013935 | 49 | 141 | 0.0 | 0.0 | 0.00 | 0.00 | 0.00 | 99 | 1019.6 |
| 20260903012935 | 49 | 141 | 0.0 | 0.0 | 0.00 | 0.00 | 0.00 | 99 | 1019.2 |
| 20260903011934 | 50 | 141 | 0.0 | 0.0 | 0.00 | 0.00 | 0.00 | 99 | 1019.3 |
| 20260903010935 | 50 | 141 | 0.0 | 0.0 | 0.00 | 0.00 | 0.00 | 99 | 1019.5 |
| 20260903005934 | 50 | 141 | 0.0 | 0.0 | 0.00 | 0.00 | 0.00 | 99 | 1019.6 |
| 20260903003936 | 51 | 141 | 0.0 | 0.0 | 0.00 | 0.00 | 0.00 | 99 | 1019.5 |
| 20260903001934 | 51 | 141 | 0.0 | 0.0 | 0.00 | 0.00 | 0.00 | 99 | 1019.5 |
| 20260902232947 | 52 | 141 | 0.0 | 0.0 | 0.00 | 0.00 | 0.00 | 99 | 1019.5 |
| 20260902231934 | 52 | 141 | 0.0 | 0.0 | 0.00 | 0.00 | 0.00 | 99 | 1019.1 |
| 20260902230934 | 53 | 141 | 0.0 | 0.0 | 0.00 | 0.00 | 0.00 | 99 | 1019.6 |
| 20260902225934 | 53 | 141 | 0.0 | 0.0 | 0.00 | 0.00 | 0.00 | 99 | 1019.6 |
| 20260902223935 | 53 | 141 | 0.0 | 0.0 | 0.00 | 0.00 | 0.00 | 99 | 1019.6 |
| 20260902222936 | 54 | 141 | 0.0 | 0.0 | 0.00 | 0.00 | 0.00 | 99 | 1019.6 |
| 20260902221934 | 54 | 141 | 0.0 | 0.0 | 0.00 | 0.00 | 0.00 | 99 | 1019.5 |
| 20260902220936 | 54 | 141 | 0.0 | 0.0 | 0.00 | 0.00 | 0.00 | 99 | 1019.6 |
| 20260902215934 | 54 | 141 | 0.0 | 0.0 | 0.00 | 0.00 | 0.00 | 99 | 1019.6 |
| 20260902214933 | 53 | 141 | 0.0 | 0.0 | 0.00 | 0.00 | 0.00 | 99 | 1019.4 |
| 20260902211935 | 55 | 141 | 0.0 | 0.0 | 0.00 | 0.00 | 0.00 | 99 | 1019.5 |
| 20260902205934 | 55 | 141 | 0.0 | 0.0 | 0.00 | 0.00 | 0.00 | 99 | 1019.3 |
| 20260902204934 | 56 | 141 | 0.0 | 0.0 | 0.00 | 0.00 | 0.00 | 99 | 1019.4 |
| 20260902201933 | 57 | 141 | 0.0 | 0.0 | 0.00 | 0.00 | 0.00 | 99 | 1019.7 |
| 20260902200948 | 57 | 141 | 0.0 | 0.0 | 0.00 | 0.00 | 0.00 | 99 | 1019.5 |
| 20260902195934 | 57 | 141 | 0.0 | 0.0 | 0.00 | 0.00 | 0.00 | 99 | 1019.5 |
| 20260902193935 | 57 | 141 | 0.0 | 0.0 | 0.00 | 0.00 | 0.00 | 98 | 1019.7 |
| 20260902190934 | 58 | 141 | 0.0 | 0.0 | 0.00 | 0.00 | 0.00 | 98 | 1019.9 |
| 20260902185934 | 58 | 139 | 0.0 | 0.0 | 0.00 | 0.00 | 0.00 | 97 | 1019.8 |
| 20260902184936 | 58 | 146 | 0.0 | 0.0 | 0.00 | 0.00 | 0.00 | 97 | 1019.8 |
| 20260902181929 | 58 | 146 | 0.0 | 0.0 | 0.00 | 0.00 | 0.00 | 96 | 1019.8 |
| 20260902180929 | 59 | 146 | 0.0 | 0.0 | 0.00 | 0.00 | 0.00 | 96 | 1019.5 |
| 20260902175929 | 59 | 146 | 0.0 | 0.0 | 0.00 | 0.00 | 0.00 | 95 | 1019.7 |
| 20260902174930 | 60 | 146 | 0.0 | 0.0 | 0.00 | 0.00 | 0.00 | 94 | 1019.2 |
| 20260902173929 | 61 | 146 | 0.0 | 0.0 | 0.00 | 0.00 | 0.00 | 93 | 1019.3 |
| 20260902172929 | 61 | 146 | 0.0 | 0.0 | 0.00 | 0.00 | 0.00 | 92 | 1019.2 |
| 20260902171929 | 62 | 146 | 0.0 | 0.0 | 0.00 | 0.00 | 0.00 | 90 | 1019.2 |
| 20260902165929 | 64 | 152 | 0.0 | 0.0 | 0.00 | 0.00 | 0.00 | 87 | 1019.2 |
| 20260902164932 | 65 | 152 | 0.0 | 0.0 | 0.00 | 0.00 | 0.00 | 83 | 1019.2 |
| 20260902162931 | 67 | 152 | 0.0 | 1.0 | 0.00 | 0.00 | 0.00 | 79 | 1019.2 |
| 20260902161929 | 68 | 159 | 0.0 | 1.0 | 0.00 | 0.00 | 0.00 | 77 | 1019.5 |
| 20260902160931 | 68 | 151 | 0.0 | 2.0 | 0.00 | 0.00 | 0.00 | 71 | 1019.2 |
| 20260902151929 | 70 | 152 | 0.0 | 2.0 | 0.00 | 0.00 | 0.00 | 67 | 1019.6 |
| 20260902145928 | 73 | 291 | 3.0 | 8.0 | 0.00 | 0.00 | 0.00 | 60 | 1019.5 |
| 20260902144931 | 73 | 224 | 1.0 | 4.0 | 0.00 | 0.00 | 0.00 | 62 | 1019.4 |
| 20260902143929 | 72 | 132 | 0.0 | 3.0 | 0.00 | 0.00 | 0.00 | 64 | 1019.6 |